RH
62 60 59 58 57 65 75 67 70 65 77 51 59 69 42 39 40 42 43 45 46 47 45 42 41 45 50 50 47 46 46 44 42 45 46 42 40 47 48 47 43 34 23 16
73 58 63 71 63 60 57 56 61 51 54 36 36 36 40 40 45 48 50 50 47 44 42 47 48 49 49 50 49 48 45 46 47 47 46 44 41 40 46 50 51 47 38 26
87 69 72 78 62 57 55 55 53 66 50 42 37 38 38 46 49 51 52 51 44 43 45 46 46 50 52 51 44 37 38 46 48 46 48 47 45 40 41 50 58 56 51 41
92 80 78 49 36 39 50 46 43 44 43 38 35 32 41 48 53 53 51 47 43 42 44 45 46 43 41 39 39 40 41 41 40 43 45 46 45 42 42 47 59 64 62 55
93 94 67 52 39 40 42 42 41 41 38 36 35 48 53 51 52 52 53 47 47 42 40 40 41 40 39 37 38 38 38 39 41 40 40 45 53 52 47 46 50 61 66 64
86 93 88 53 38 38 44 70 43 40 44 49 51 74 58 53 55 53 48 48 41 33 30 31 34 32 23 20 20 22 35 37 39 40 39 41 45 52 54 48 42 49 57 68
91 92 83 56 46 40 64 58 49 45 45 45 61 53 52 55 53 50 50 45 32 18 15 18 15 14 14 14 13 19 22 22 24 37 42 42 42 47 49 51 51 45 46 51
88 97 94 47 44 54 48 44 44 43 43 47 51 55 57 55 54 51 52 36 25 24 18 18 20 17 16 16 14 12 13 15 17 18 23 37 44 42 47 50 51 52 53 47
72 72 46 42 38 36 40 45 41 43 45 54 58 56 56 54 51 55 48 31 31 17 12 16 17 16 13 14 14 11 11 12 15 17 25 29 37 43 47 47 53 52 51 49
62 54 50 44 41 43 44 46 46 50 54 56 59 59 57 53 56 51 40 39 34 15 16 13 11 13 15 15 15 16 17 18 20 22 20 22 36 46 58 55 54 56 56 54
65 53 50 47 45 47 48 50 53 54 54 56 59 59 55 58 56 43 51 39 18 18 16 13 13 12 13 18 24 23 20 21 25 29 35 34 29 36 50 58 62 64 62 63
67 50 55 55 56 54 54 56 54 56 57 57 61 59 59 64 49 61 37 35 45 42 27 15 11 11 12 15 20 22 23 23 25 28 30 38 44 43 38 52 63 72 63 74
60 59 62 59 58 62 60 59 58 58 60 60 62 59 60 55 54 33 45 46 31 26 15 11 10 9 11 17 20 20 22 22 23 25 33 42 51 66 75 52 58 65 75 71
59 62 66 68 68 61 63 64 63 64 64 63 58 57 53 44 51 60 52 37 22 18 13 12 13 9 13 20 21 22 22 22 22 23 31 37 48 58 72 85 92 75 64 77
63 62 62 67 64 62 61 64 62 62 63 60 51 55 61 66 61 48 39 35 23 16 13 13 14 11 14 23 26 27 26 23 22 23 25 30 60 70 86 99 100 99 90 72
58 63 67 64 62 61 60 59 61 65 68 67 67 68 61 61 60 51 33 24 19 14 14 17 18 12 17 24 32 31 27 26 25 26 26 27 38 73 73 86 100 100 100 99
66 68 68 70 70 69 69 68 60 46 44 42 40 36 36 35 34 32 20 17 20 17 15 16 18 15 18 21 33 37 39 36 37 36 33 34 34 90 94 77 84 85 86 91
69 69 71 70 63 60 63 58 39 33 31 32 34 34 32 31 33 33 34 38 36 28 21 19 22 23 21 21 27 41 47 50 52 48 45 46 56 82 100 100 81 80 79 81
93 93 62 39 43 55 56 57 38 30 29 27 29 28 30 31 30 31 32 36 38 37 28 29 31 34 35 28 36 45 45 52 57 51 53 64 65 71 93 98 100 100 100 100
40 35 32 37 48 61 55 41 33 30 23 25 34 44 48 44 40 44 47 59 55 49 41 48 47 46 38 34 36 39 40 47 60 57 60 70 85 96 99 98 100 90 91 100
42 40 41 44 44 43 43 33 37 37 33 46 53 48 44 42 44 51 62 73 36 35 59 56 52 50 43 45 44 45 45 50 55 60 69 78 99 100 100 99 100 95 96 99
42 46 49 46 44 41 32 34 32 34 40 42 44 46 50 52 53 54 56 67 53 48 55 60 57 54 56 51 56 56 54 55 60 66 76 98 100 100 99 100 98 99 98 98
46 49 51 50 48 43 42 39 33 43 48 46 54 61 66 69 72 80 79 41 62 66 67 60 56 53 52 64 63 58 58 60 71 80 100 100 100 100 97 99 98 97 98 97
46 48 48 48 49 50 50 43 41 47 50 49 52 51 63 75 72 58 68 65 57 60 56 48 50 53 62 65 55 57 65 74 82 91 100 100 99 97 98 98 98 98 97 98
51 49 50 51 52 52 51 49 52 43 44 49 44 40 46 56 79 55 59 57 53 57 59 53 54 54 59 62 68 76 82 84 88 97 98 98 99 98 96 97 97 97 97 97
49 51 55 56 56 57 58 63 66 55 57 56 45 39 44 47 58 60 54 55 60 61 66 64 65 65 68 76 82 91 93 94 94 96 99 99 97 96 96 97 96 96 96 98
62 62 62 58 55 67 73 70 74 66 53 59 65 45 50 49 58 73 75 74 77 80 77 73 75 79 88 94 94 94 98 95 97 97 97 97 96 96 96 97 97 96 97 97
Wind_Speed
7 10 8 12 13 11 13 12 8 5 9 2 5 7 23 21 21 23 27 23 25 36 35 33 33 27 25 24 23 22 22 23 21 20 21 21 21 20 21 21 21 21 21 20
6 8 8 12 14 15 19 20 20 21 28 19 24 12 11 14 19 20 17 28 36 35 34 34 32 29 26 24 24 23 22 22 22 21 21 21 22 21 22 22 22 22 21 21
5 6 9 7 7 13 7 6 20 15 20 10 3 7 10 15 13 14 25 33 34 32 30 29 28 25 23 22 22 21 20 20 23 23 21 20 21 22 22 23 22 22 22 21
4 6 4 6 3 6 12 10 16 9 6 9 9 14 12 14 9 20 28 30 24 23 25 25 23 20 21 21 20 20 19 19 20 21 21 21 22 22 23 23 24 23 22 21
2 2 9 7 2 2 4 7 12 17 15 17 12 11 7 6 15 28 29 23 19 19 20 20 20 20 20 20 20 21 21 21 22 21 23 23 24 25 24 25 24 24 24 23
1 3 5 2 2 4 2 6 5 3 4 2 4 3 7 12 22 26 22 16 18 19 20 20 20 20 22 22 24 22 22 22 22 23 24 23 23 24 25 25 25 25 24 23
7 5 8 10 13 5 1 5 4 3 4 10 6 15 17 19 25 23 17 14 16 18 19 19 20 20 23 25 25 24 25 25 24 23 23 24 25 25 24 25 25 25 25 24
4 5 10 12 7 6 5 6 6 12 20 20 19 17 16 21 23 19 16 17 17 19 19 18 19 22 24 25 24 26 26 27 27 26 25 26 26 27 26 27 28 28 27 26
12 8 5 18 10 10 12 15 23 29 26 16 13 17 20 23 22 15 15 17 18 20 20 19 22 24 28 28 28 30 30 31 32 30 28 25 26 28 29 28 29 30 30 30
1 8 20 20 20 24 29 29 29 15 13 14 17 20 23 22 18 15 15 17 19 21 22 24 26 27 28 27 27 29 30 30 31 34 34 33 31 28 28 29 31 31 31 32
9 16 25 29 28 27 28 21 18 19 21 21 22 22 22 18 17 15 15 19 20 22 24 26 29 29 28 28 28 30 32 32 33 34 36 37 35 34 32 29 29 30 31 31
18 24 22 28 32 35 35 33 29 26 21 24 20 21 19 19 16 16 19 19 22 26 27 30 29 29 28 28 29 31 32 33 33 34 36 36 36 38 33 33 32 31 30 30
39 35 30 30 28 34 37 40 33 25 25 23 21 18 16 16 17 19 22 26 28 29 31 31 30 31 30 29 30 30 30 31 32 34 36 37 37 37 41 39 33 33 31 31
44 42 37 33 30 31 30 20 16 15 16 15 14 13 12 15 20 24 26 29 31 32 31 31 31 33 31 29 29 29 28 28 31 34 35 36 37 37 38 40 41 40 33 32
35 30 25 10 12 13 11 11 10 10 10 11 10 13 17 21 24 31 32 34 36 34 34 33 34 36 32 29 30 29 29 30 31 35 36 37 36 39 37 37 38 39 38 34
21 16 8 4 8 9 10 14 15 17 17 19 20 22 24 26 27 27 33 35 34 35 36 37 39 37 34 31 30 30 29 30 30 33 37 39 39 38 37 35 35 36 36 38
16 3 6 12 13 14 17 20 20 18 16 18 21 25 29 31 34 37 36 35 34 35 37 40 41 39 34 31 30 30 30 32 33 34 38 40 41 38 38 36 37 38 39 37
17 15 14 15 15 14 21 21 21 22 25 26 28 30 33 37 40 42 44 43 44 44 42 44 43 40 37 33 30 31 32 35 36 38 40 41 42 38 38 39 38 38 39 37
12 17 23 26 25 23 24 25 26 27 28 31 33 34 34 37 39 41 43 44 46 48 48 46 46 45 41 35 31 29 32 36 40 41 40 42 43 41 37 38 40 37 41 40
20 24 22 25 25 24 27 28 28 27 29 31 34 36 39 40 42 42 43 43 47 50 48 47 46 42 35 30 28 28 31 35 39 40 40 42 42 41 40 37 37 41 38 40
25 28 28 30 30 31 31 32 32 33 35 34 36 39 41 41 43 43 43 42 47 46 44 42 40 37 30 28 28 30 32 35 36 38 39 41 38 40 39 42 43 38 38 37
33 30 29 31 33 34 32 32 34 36 37 39 39 39 39 40 39 40 39 42 43 40 37 36 34 31 29 27 30 32 34 36 36 38 38 38 38 41 41 44 38 38 37 36
41 37 34 34 36 37 36 36 37 39 38 36 36 36 36 36 37 39 42 36 35 34 32 32 31 28 26 29 32 35 37 36 37 37 37 37 37 40 43 40 44 37 36 35
43 41 40 39 40 38 40 41 41 40 37 36 35 34 35 35 35 34 35 35 34 31 29 29 28 28 29 31 34 37 38 37 37 38 39 37 40 45 39 43 38 35 32 32
40 43 43 42 43 44 45 44 43 42 39 37 36 35 36 35 33 35 33 33 32 32 32 32 31 32 32 33 35 36 36 37 38 38 35 39 36 41 36 32 30 30 30 29
44 45 45 45 45 46 47 46 43 42 38 38 38 38 39 39 38 37 36 35 35 34 34 33 33 32 32 33 34 35 36 36 36 33 33 33 39 33 30 28 27 25 20 17
47 47 45 46 47 43 40 41 40 41 39 39 39 39 38 39 39 39 38 39 37 35 33 33 32 31 31 33 34 34 35 34 31 30 34 33 28 27 27 24 21 18 15 13
Wind_Direction
259 261 253 256 242 197 206 206 195 263 237 286 258 260 288 299 314 320 329 337 335 333 332 330 329 329 328 327 323 323 318 320 318 312 310 310 309 306 303 303 305 305 306 307
284 262 254 260 246 232 230 231 240 253 270 267 280 285 270 292 320 332 342 336 335 334 332 331 331 328 328 320 318 318 315 317 321 316 310 310 309 306 303 303 304 302 304 304
269 325 306 285 238 211 210 205 220 235 246 266 268 271 285 308 317 332 336 337 335 335 336 336 339 338 336 337 332 327 323 323 323 319 313 311 309 305 306 303 299 300 302 302
275 333 328 243 238 213 204 229 218 251 242 208 258 292 292 300 316 335 333 327 332 337 343 347 346 344 343 346 347 348 345 336 329 323 320 319 315 313 311 306 299 297 298 297
234 230 288 292 107 187 191 288 212 226 243 240 252 295 290 228 329 327 324 324 329 335 343 350 355 358 359 359 353 343 337 335 333 327 321 319 318 316 315 307 300 297 296 298
290 212 252 263 115 117 97 281 339 223 156 144 6 311 289 290 317 317 318 315 325 334 339 342 347 348 351 352 351 348 347 343 335 327 322 317 312 312 312 309 304 298 293 292
230 262 279 253 251 163 162 252 156 56 328 284 221 253 286 300 313 315 304 309 319 327 336 342 346 348 352 353 352 343 338 336 335 332 326 320 315 313 308 307 301 297 295 294
186 214 259 171 129 180 210 190 231 273 274 278 255 254 281 310 312 308 302 311 326 333 339 347 350 348 346 346 346 342 337 335 333 330 326 323 319 315 311 308 304 300 295 293
193 212 268 194 224 252 259 261 285 295 291 244 249 274 301 309 306 287 294 309 321 330 332 336 344 344 342 344 341 337 334 333 333 333 331 326 320 316 314 308 302 301 298 294
132 226 247 254 258 279 297 297 300 284 257 258 275 292 297 294 284 277 294 311 320 325 327 333 339 340 342 340 335 331 329 331 332 332 331 330 329 324 317 311 306 302 298 296
265 280 282 280 287 297 305 298 296 286 281 281 284 287 291 277 269 283 298 307 315 321 324 325 328 330 334 337 336 332 330 332 332 332 331 328 325 323 320 315 310 304 299 297
268 275 277 285 291 292 293 298 302 285 282 293 285 296 282 269 273 293 299 305 311 315 320 323 323 323 329 330 328 327 328 329 330 329 329 328 326 321 316 314 310 307 302 295
265 277 281 290 291 296 292 292 290 280 282 287 293 279 268 274 290 300 305 312 317 317 314 315 316 317 323 323 321 322 323 324 325 327 327 327 326 324 321 316 309 305 303 300
273 283 289 290 289 297 297 294 285 287 290 288 287 280 290 299 303 308 304 302 311 311 309 311 310 312 319 316 314 314 316 320 324 324 323 323 323 323 321 317 315 308 303 303
276 286 286 287 311 323 329 326 337 336 331 328 325 311 302 303 304 306 309 309 309 308 307 309 309 308 316 312 309 310 316 323 325 321 322 320 317 318 318 317 312 309 307 299
293 283 287 37 69 59 41 15 5 351 337 334 325 318 310 302 300 307 309 309 309 307 304 305 305 309 314 310 305 307 314 320 323 322 322 321 317 310 315 313 307 305 303 303
275 75 89 48 28 17 7 350 339 338 334 329 321 316 314 306 299 297 298 298 299 298 298 298 301 307 310 311 304 299 306 311 316 319 319 318 318 308 306 308 307 308 307 307
99 80 46 14 351 323 315 321 304 302 302 301 296 292 291 292 293 295 295 298 299 296 292 294 301 306 306 310 306 299 296 300 309 313 312 313 313 309 297 297 302 304 307 305
10 351 339 320 319 304 305 310 314 307 301 299 297 296 296 295 297 298 299 298 296 295 297 303 305 305 305 309 309 301 296 298 301 307 308 308 308 307 302 296 289 297 301 299
307 310 317 316 312 306 304 303 303 301 299 297 302 305 302 300 300 301 300 295 296 296 301 303 303 305 305 306 310 307 305 301 303 306 306 307 305 298 295 300 296 305 302 292
302 301 308 313 310 308 304 305 306 303 302 303 301 300 299 300 300 302 300 295 299 302 304 308 308 308 304 306 309 309 308 307 306 307 306 306 299 294 290 291 289 304 297 298
304 299 294 302 306 302 298 299 299 300 304 303 301 299 300 299 300 300 300 298 303 311 313 310 307 305 303 306 308 310 310 309 308 308 304 302 293 294 296 291 278 296 294 293
304 303 299 298 300 298 297 296 297 301 303 302 303 304 302 302 302 299 299 309 311 312 312 308 308 308 308 310 309 311 311 310 309 308 304 297 292 301 302 283 298 297 293 291
302 302 300 298 297 292 291 297 301 303 302 305 307 308 307 306 308 308 309 312 314 316 313 312 312 310 311 308 309 310 312 311 311 311 309 304 302 305 300 298 300 295 294 293
301 299 297 294 292 292 296 298 300 300 302 304 306 309 310 310 302 312 312 311 312 311 309 309 310 309 309 309 309 310 310 311 311 312 307 306 305 305 306 303 299 297 294 288
293 293 296 296 294 293 292 293 294 296 297 300 305 307 309 309 308 308 308 308 308 308 309 310 310 309 308 309 310 309 310 310 311 309 311 302 307 309 312 308 307 305 298 290
292 294 294 293 292 292 292 295 294 295 298 299 300 306 306 305 305 306 307 308 309 310 309 308 309 309 310 310 308 308 309 310 312 314 310 307 310 313 315 313 312 309 298 282